Cold Bay, AK

5:41 AM AKDT on April 28, 2017 (GMT -0800)
Cold Bay

Weather History for PACD - December, 2013

Change the Weather History Date:

Sunday, December 8, 2013

  Actual Average Record
Temperature  
Mean Temperature 46 °F 32 °F  
Max Temperature 47 °F 37 °F 47 °F (2013)
Min Temperature 44 °F 28 °F 5 °F (1975)
Degree Days  
Heating Degree Days 19 33  
Month to date heating degree days 165 261  
Since 1 July heating degree days 2681 3281  
Cooling Degree Days 0 0  
Month to date cooling degree days 0 0  
Year to date cooling degree days 0 0  
Moisture  
Dew Point 42 °F    
Average Humidity 0    
Maximum Humidity 0    
Minimum Humidity 0    
Precipitation  
Precipitation 0.02 in 0.16 in 1.61 in (1972)
Month to date precipitation 1.81 1.30  
Year to date precipitation 43.93 38.51  
Snow  
Snow 0.00 in 0.50 in 3.20 in (1964)
Month to date snowfall 0.0 3.3  
Since 1 July snowfall 3.6 15.9  
Snow Depth 0.00 in    
Sea Level Pressure  
Sea Level Pressure 30.03 in    
Wind  
Wind Speed 19 mph (SE)    
Max Wind Speed 30 mph    
Max Gust Speed 39 mph    
Visibility 9 miles    
Events Rain    
T = Trace of Precipitation, MM = Missing Value Source: NWS Daily Summary

Daily Weather History Graph

Daily Weather History Graph

Search for Another Location

Airport or City:

Trip Planner

Search our weather history database for the weather conditions in past years. The results will help you decide how hot, cold, wet, or windy it might be!

Date:

Astronomy

Dec. 08, 2013 Rise Set
Actual Time 10:03 AM AKST 5:21 PM AKST
Civil Twilight 9:18 AM AKST 6:07 PM AKST
Nautical Twilight 8:31 AM AKST 6:54 PM AKST
Astronomical Twilight 7:46 AM AKST 7:39 PM AKST
Moon 1:39 PM AKST (12/8) 12:02 AM AKST (12/8)
Length of Visible Light 8h 48m
Length of Day
7h 17m
Waxing Crescent, 41% of the Moon is Illuminated
Dec 8
Waxing Crescent
Dec 9
First Quarter
Dec 17
Full
Dec 25
Last Quarter
Jan 1
New

Hourly Weather History & Observations

Time (AKST) Temp. Windchill Dew Point Humidity Pressure Visibility Wind Dir Wind Speed Gust Speed Precip Events Conditions
12:53 AM 46.9 °F - 41.0 °F 80% 30.01 in 10.0 mi ESE 21.9 mph 29.9 mph N/A   Overcast
1:53 AM 46.0 °F 38.8 °F 41.0 °F 83% 30.01 in 10.0 mi ESE 18.4 mph 28.8 mph 0.00 in   Overcast
2:03 AM 46.4 °F 39.2 °F 41.0 °F 81% 30.01 in 10.0 mi SE 18.4 mph 26.5 mph N/A   Overcast
2:53 AM 46.0 °F 38.0 °F 42.1 °F 86% 30.01 in 10.0 mi SE 21.9 mph 29.9 mph 0.00 in Rain Light Rain
3:53 AM 46.0 °F 37.8 °F 42.1 °F 86% 30.01 in 10.0 mi SE 23.0 mph - 0.00 in Rain Light Rain
4:53 AM 46.0 °F 37.0 °F 42.1 °F 86% 30.01 in 8.0 mi SE 27.6 mph 35.7 mph 0.00 in Rain Light Rain
5:00 AM 46.4 °F 37.5 °F 42.8 °F 87% 30.00 in 9.0 mi SE 27.6 mph 35.7 mph 0.00 in Rain Light Rain
5:53 AM 46.0 °F 36.9 °F 42.1 °F 86% 29.99 in 10.0 mi ESE 28.8 mph 39.1 mph 0.01 in Rain Light Rain
6:53 AM 46.0 °F 37.8 °F 42.1 °F 86% 29.99 in 7.0 mi ESE 23.0 mph 32.2 mph 0.00 in Rain Light Rain
7:53 AM 46.0 °F 38.3 °F 43.0 °F 89% 29.99 in 10.0 mi SE 20.7 mph 32.2 mph 0.00 in Rain Light Rain
8:07 AM 46.4 °F 38.5 °F 42.8 °F 87% 29.99 in 8.0 mi SE 21.9 mph 29.9 mph 0.00 in Rain Light Rain
8:24 AM 46.4 °F 38.3 °F 42.8 °F 87% 29.99 in 8.0 mi SE 23.0 mph 29.9 mph 0.00 in Rain Light Rain
8:53 AM 45.0 °F 37.1 °F 42.1 °F 90% 30.01 in 10.0 mi SE 19.6 mph - 0.00 in   Overcast
9:18 AM 44.6 °F 36.9 °F 41.0 °F 87% 30.01 in 10.0 mi SE 18.4 mph - N/A   Overcast
9:53 AM 45.0 °F 35.6 °F 41.0 °F 86% 30.01 in 10.0 mi SE 27.6 mph 35.7 mph N/A   Overcast
10:53 AM 45.0 °F 36.4 °F 39.9 °F 82% 30.01 in 10.0 mi SE 23.0 mph - N/A   Mostly Cloudy
11:17 AM 46.4 °F 39.2 °F 41.0 °F 81% 30.02 in 10.0 mi SE 18.4 mph - N/A   Mostly Cloudy
11:53 AM 46.0 °F 38.3 °F 41.0 °F 83% 30.04 in 10.0 mi SE 20.7 mph 26.5 mph N/A   Mostly Cloudy
12:53 PM 46.0 °F 38.8 °F 41.0 °F 83% 30.05 in 10.0 mi SSE 18.4 mph - N/A   Overcast
1:53 PM 45.0 °F 37.6 °F 42.1 °F 90% 30.06 in 10.0 mi SSE 17.3 mph - 0.00 in   Overcast
2:53 PM 45.0 °F 39.3 °F 41.0 °F 86% 30.04 in 10.0 mi SE 11.5 mph - 0.00 in   Overcast
3:53 PM 45.0 °F 39.7 °F 42.1 °F 90% 30.04 in 10.0 mi SE 10.4 mph - N/A   Overcast
4:53 PM 46.0 °F 41.0 °F 42.1 °F 86% 30.04 in 6.0 mi SE 10.4 mph - 0.00 in Rain Light Rain
5:53 PM 46.0 °F 40.2 °F 42.1 °F 86% 30.06 in 10.0 mi SSE 12.7 mph - 0.01 in   Overcast
6:00 PM 46.4 °F 39.8 °F 42.8 °F 87% 30.05 in 9.0 mi SSE 16.1 mph - N/A   Overcast
6:08 PM 44.6 °F 36.9 °F 42.8 °F 93% 30.06 in 7.0 mi SSE 18.4 mph - N/A   Overcast
6:53 PM 45.0 °F 37.9 °F 42.1 °F 90% 30.06 in 9.0 mi SSE 16.1 mph - N/A   Overcast
7:53 PM 45.0 °F 37.1 °F 42.1 °F 90% 30.08 in 8.0 mi SSE 19.6 mph - N/A   Overcast
8:53 PM 44.1 °F 36.8 °F 41.0 °F 89% 30.09 in 6.0 mi SSE 16.1 mph - 0.00 in   Overcast
9:53 PM 44.1 °F 37.4 °F 41.0 °F 89% 30.10 in 5.0 mi SSE 13.8 mph - N/A   Overcast
10:53 PM 45.0 °F 37.9 °F 41.0 °F 86% 30.11 in 9.0 mi SSE 16.1 mph - N/A   Overcast
11:53 PM 45.0 °F 40.1 °F 42.1 °F 90% 30.12 in 10.0 mi ESE 9.2 mph - N/A   Overcast